Погода в Котласе

Погода в Котласе : погода сейчас, прогноз погоды и архив. Всё, что Вы хотите узнать о погоде в Котласе!

Поиск расширенной информации на нашем сайте:

Другие новости

Новости СМИ2

Главная страница сайта

Новости сайта

02.10.2013

Напоминаем, что на нашем новом сайте вы можете получить высокодетализированные прогнозы погоды по пунктам России, СНГ и мира (включающие важные для авиации метеовеличины, такие как направление и скорость ветра, видимость, явления погоды, количество и форма облачности, нижняя и верхняя граница облачности), а также ознакомиться с разнообразными материалами по авиационной метеорологии и подборкой полезных ссылок на эту тему.

Сайт Метеоцентр.Азия посвящён разработке технологий оптимизации авиаметеорологического обслуживания, включая проектирование и перспективное создание нескольких автоматизированных авиаметеорологических систем:
- система выпуска высокодетальных прогностических карт явлений погоды для нижнего воздушного пространства по России и ближнему зарубежью;
- система верификации прогнозов TAF (выпускаемых синоптиками официальных АМСГ РФ и ближнего зарубежья) и AUTOTAF (выпускаемых сайтом Метеоцентр.Азия) - выявление ошибок, онлайн-сопоставление с фактической погодой METAR, автоматическое внесение коррективов в прогнозы при резком отклонении фактической погоды от прогноза, подсчёт оправдываемости прогнозов по элементам и в целом;
- система обработки, анализа и отображения авиаметеорологической информации для применения провайдерами метеорологической информации.

Рекомендуем: дизель генератор 60 квт цена

Погода в Котласе - сегодня

Время (UTC), дата Ветер
(°,м/с) 
Видим.   Явления Облачность Т
(°С)
Тd
(°С)
f(%) Тe
(°С)
Pmin
(гПа)
dP
(гПа)
Po
(мм)
O2
(г/м3)
Тmin Tmax R s Состояние
почвы
09 17.02.17 190 (Ю) 5{10}  20000 м    10/6 1080 м средняя 
[Sc|Ac und]
-8 -13.1 67 -12  1007.8  -2.1  750  313           
12 17.02.17 180 (Ю) 20000 м    10/8 1020 м средняя 
[Sc|Ac und]
-6.1 -11.5 66 -9  1005.2  -2.4  749  310           
15 17.02.17 200 (Ю) 10 км    10/8 540 м средняя 
[Sc|Ac und]
-5.8 -10.1 72 -8  1003.7  -1.5  747  309    -5.2       
18 17.02.17 190 (Ю) 10 км  слаб. ливневой снег  10/8 630 м кучево-дожд., средняя 
[Cb cap|Ac und]
-6.5 -8.1 88 -9  1002.9  -0.8  747  309           
21 17.02.17 180 (Ю) 1400 м  сильн. снег{ливн. осадки}  10/10 240 м 
[Frnb|Ns]
-7.2 -9.3 85 -10  1000.9  -2  745  309           
00 18.02.17 190 (Ю) 10 км  слаб. дождь со снегом{ливн. осадки}  10/10 330 м 
[Frnb|Ns]
-7 -8.7 88 -10  998.7  -2.2  744  308           
03 18.02.17 180 (Ю) 2100 м  снег{дождь} [диам. гололёда 0.2 мм]  10/10 240 м 
[Frnb|Ns]
-6.7 -7.9 91 -9  996.5  -2.1  742  307  -7.2    52  равномерный
сухой снег
100% 
06 18.02.17 190 (Ю) 3100 м  снег{дождь}  10/10 270 м 
[Frnb|Ns]
-5.8 -7.3 89 -9  994.9  -1.7  741  306           
09 18.02.17 190 (Ю) 20000 м  {снег}  10/8 660 м средняя 
[Sc|Ac und]
-3.6 -5.4 87 -6  993.8  -1.1  740  303           
12 18.02.17 200 (Ю) 10 км  слаб. ливневой дождь{снег}  10/8 450 м кучево-дожд., средняя 
[Cb cap|Ac und]
-2.2 -4.4 85 -4  991.9  -1.8  739  301           
15 18.02.17 220 (ЮЗ) 3300 м  слаб. ливневой снег [диам. гололёда 0 мм]  10/8 240 м кучево-дожд., средняя 
[Cb cap|Ac und]
-1.6 -4 84 -4  990.4  -1.5  738  299    -1.6     
18 18.02.17 290 (З) 4000 м  слаб. ливневой снег  10/8 600 м кучево-дожд., средняя 
[Cb cap|Ac und]
-2 -2.9 94 -5  989.3  -1.1  737  299           
21 18.02.17 320 (СЗ) 10 км  {ливн. осадки}  9/6 800 м средняя 
[Sc|Ac trans]
-4.7 -10.4 64 -8  990.2  0.8  737  303           
00 19.02.17 300 (СЗ) 2500 м  слаб. ливневой снег  10/8 480 м кучево-дожд., средняя 
[Cb cap|Ac und]
-5.7 -9.1 77 -9  992.3  2.1  739  305           
03 19.02.17 310 (СЗ) 6-10{11}  10 км  позёмок{ливн. осадки}  9/6 630 м средняя 
[Sc|Ac trans]
-7.3 -11.6 71 -12  996.5  4.2  742  308  -7.3    0.9  53  равномерный
сухой снег
100% 
06 19.02.17 300 (СЗ) 20000 м  {ливн. осадки}  4/3 600 м верхняя 
[Sc|Ci fib]
-8.6 -13.4 68 -13  1001.4  4.6  746  311  -8.6         
09 19.02.17 300 (СЗ) 20000 м    6/0 верхняя 
[Ci fib]
-6.4 -14 55 -9  1003.2  747  309           
12 19.02.17 270 (З) 20000 м    6/0 средняя, верхняя 
[Ac trans|Ci fib]
-5 -14.6 47 -6  1003.6  0.4  747  308           
15 19.02.17 тихо ()   10 км    10/0 средняя, верхняя 
[Ac trans|Ci fib]
-7.2 -13.6 60 -7  1002  -1.2  746  310    -4.8       
18 19.02.17 160 (Ю) 10 км    10/8 480 м средняя 
[Sc|Ac und]
-7.2 -11.5 71 -10  998.6  -3.5  744  309           
21 19.02.17 120 (ЮВ) 2100 м  снег  10/8 210 м средняя 
[Frnb|As op]
-7.3 -9 88 -10  993.9  -4.6  740  307           
00 20.02.17 120 (ЮВ) 3600 м  снег  10/8 300 м средняя 
[Frnb|As op]
-7.4 -9.1 88 -9  989.1  -4.8  737  306           
03 20.02.17 110 (В) 3000 м  снег  10/10 330 м 
[Frnb|Ns]
-7.4 -9.1 88 -9  985.8  -3.3  734  305  -8.3    53  равномерный
сухой снег
100% 
06 20.02.17 110 (В) 1800 м  сильн. снег  10/10 150 м 
[Frnb|Ns]
-6.8 -8 91 -6  982.2  -3.6  731  303           
09 20.02.17 090 (В) 0600 м  сильн. снег  ?/? 100 
-3.7 -4.5 94 -3  978.5  -3.7  729  298           
Время (UTC), дата Ветер
(°,м/с) 
Видим.   Явления Облачность Т
(°С)
Тd
(°С)
f(%) Тe
(°С)
Pmin
(гПа)
dP
(гПа)
Po
(мм)
O2
(г/м3)
Тmin Tmax R s Состояние
почвы

Для получения пояснительной информации подведите курсор к названию столбца.

ПОГОДА в Котласе - архив

Всё, что Вы хотите узнать о погоде в Котласе - удобно и подробно!

Выберите нужную дату (начиная с 1 января 2015* года) и нажмите кнопку "Найти".
Будут отображены архивные сводки погоды по пункту Котлас, начиная с указанной даты.


Отображать данные в формате CSV (для использования в таблицах Excel)


Внимание! Наш архив погоды предназначен исключительно для личного некоммерческого использования в познавательных целях. Если Вам необходимы официальные справки о состоянии погоды (для производственных, юридических, коммерческих и т.п. целей), обращайтесь в органы Росгидромета.

*Примечание: данная дата относится к архиву по метеостанциям СССР (Россия, СНГ, Балтия).
Архив по метеостанциям Зарубежной Европы и Азии (кроме Китая) хранится 10 дней, по другим регионам земного шара (Китай, Африка, Америка, Австралия, Океания) - 1 день.

Котлас - район местоположения метеостанции


Название, широта, долгота, высота метеостанции:
Котлас 61.2°ш. 46.7°д. 56 м над ур. моря [Российская Федерация]

Дополнительная информация

В oтличие oт бoльшинства пoгoдных сайтoв мы публикуем пoдрoбную метеoинфoрмацию в детальнoм прoфессиoнальнoм фoрмате.

Характеристики температуры и влажнoсти вoздуха измеряются на высoте 2 м в тени вдали oт зданий и деревьев.
Скoрoсть ветра измеряется на высoте 10 м (на урoвне рoста челoвека скoрoсть ветра ниже в 1.5-2 раза). Если метеoстанция нахoдится в гoрoде или в лесу, тo скoрoсть ветра занижена на 2-4 м/с пo сравнению с oткрытым местoм. Скoрoсть ветра над акватoриями крупных рек и oзёр, а также на вершинах хoлмoв на 2-5 м/с выше, чем в oбычных услoвиях.
Атмoсфернoе давление в разных тoчках местнoсти мoжет значительнo oтличаться oт давления на метеoстанции, в зависимoсти oт услoвий рельефа (при пoдъёме на 10 м давление пoнижается примернo на 1 мм рт.ст.).